Weather in Panino

Russia / Voronezh Oblast     51°38′46″N   40°08′06″E
temp.,
°C
wind,
m/s
gust,
m/s
humid.,
%
clouds,
%
prec.,
mm/h
press.,
hPa
HPBL,
m
27 february, sat
sat2700:00+2wnw51196100 0.1 1008352
03:00+1w61194100 0.1 1009396
06:00+1w61292100 0.0 1007541
09:00+1wnw61296100 0.1 1007715
12:00+2wnw8128972 0.1 10071005
15:00+2wnw7128876 0.1 1008979
18:00+1wnw6129294 0.1 1010641
21:000n599597 0.3 1011537
28 february, sun
sun2800:00−4nnw5118372 0.1 1012467
03:00−5n488661 0.1 1014394
06:00−6n378815 0.0 1015398
09:00−6nnw368643 0.0 1016448
12:00−4nnw3579100 0.1 1016566
15:00−3nnw458299 0.1 1017560
18:00−4nnw368799 0.0 1017446
21:00−4nnw129490 0.1 101970
1 march, mon
mon100:00−5nne239569 0.1 1020136
03:00−6nne239572 0.1 1021114
06:00−7nne239469 0.0 1022110
09:00−6n238544 0.0 1024204
12:00−4n227527 0.0 1025438
15:00−2nw227224 0.0 1026503
18:00−3wsw23882 0.0 102558
21:00−3w379032 0.0 1026344
2 march, tue
tue200:00−2wsw4985100 0.0 1024411
03:00−3wsw61291100 0.0 1022436
06:00−2wsw71390100 0.0 1019502
09:00−1wsw81491100 0.1 1016649
12:00+1w81492100 0.3 1013856
15:00+1w71297100 0.7 1011661
18:000nw61297100 0.7 1010647
21:000nw6138899 0.8 1012594
3 march, wed
wed300:00−1nw7139192 0.1 1013771
03:00−2nw6119293 0.1 1013745
06:00−2nw61293100 0.3 1014711
09:00−2nnw81381100 0.5 10161081
12:00−1nnw81274100 0.2 10171293
15:00−1nnw81179100 0.3 10191040
18:00−2nw6107697 0.0 1020892
21:00−2nw4118891 0.1 1021525